GW4111 Weather Reports


time (UTC)temp
C
wind
direction
speed
KPH
gust
KPH
rain 1hr
cm
rain 24hr
cm
rain mn
cm
humidity
%
barometer
mb
20260504013040 11 229 11.3 27.4 0.00 0.00 0.00 54 1008.7
20260504011541 12 257 9.7 30.6 0.00 0.00 0.00 51 1008.8
20260504010039 12 228 12.9 41.8 0.00 0.00 0.00 51 1008.7
20260504004538 11 257 12.9 29.0 0.00 0.00 0.00 53 1008.7
20260504003041 11 231 9.7 22.5 0.00 0.00 0.00 55 1008.7
20260504001545 11 242 8.0 19.3 0.00 0.00 0.00 57 1008.8
20260504000043 11 250 9.7 24.1 0.00 0.00 0.00 56 1008.8
20260503234540 11 278 8.0 30.6 0.00 0.00 0.00 56 1008.8
20260503233040 11 236 9.7 29.0 0.00 0.00 0.00 58 1009.0
20260503231542 11 284 4.8 25.7 0.00 0.00 0.00 61 1009.0
20260503230037 11 274 8.0 19.3 0.00 0.00 0.00 61 1009.1
20260503224539 11 263 9.7 33.8 0.00 0.00 0.00 59 1009.2
20260503223042 11 235 11.3 29.0 0.00 0.00 0.00 59 1009.2
20260503221548 11 263 14.5 30.6 0.00 0.00 0.00 60 1009.3
20260503220043 11 250 11.3 27.4 0.00 0.00 0.00 60 1009.2
20260503214538 11 207 12.9 33.8 0.00 0.00 0.00 59 1008.9
20260503213038 11 218 11.3 29.0 0.00 0.00 0.00 59 1008.7
20260503211538 11 214 12.9 27.4 0.00 0.00 0.00 60 1008.8
20260503210048 10 249 8.0 25.7 0.00 0.00 0.00 61 1008.9
20260503204551 11 211 11.3 29.0 0.00 0.00 0.00 59 1009.1
20260503203038 11 165 11.3 32.2 0.00 0.00 0.00 60 1009.1
20260503201539 11 252 12.9 30.6 0.00 0.00 0.00 57 1009.2
20260503200045 11 256 9.7 22.5 0.00 0.00 0.00 56 1009.4
20260503194538 11 200 16.1 30.6 0.00 0.00 0.00 53 1009.5
20260503193038 12 217 14.5 29.0 0.00 0.00 0.00 52 1009.8
20260503191535 11 295 11.3 27.4 0.00 0.00 0.00 53 1010.2
20260503190045 11 281 16.1 38.6 0.00 0.00 0.00 51 1010.3
20260503184538 12 161 11.3 30.6 0.00 0.00 0.00 49 1010.6
20260503183039 11 239 12.9 33.8 0.00 0.00 0.00 47 1010.9
20260503181537 11 236 17.7 40.2 0.00 0.00 0.00 42 1011.0
20260503180037 11 210 17.7 38.6 0.00 0.00 0.00 45 1011.1
20260503174534 10 250 14.5 29.0 0.00 0.00 0.00 49 1011.4
20260503173108 10 186 12.9 30.6 0.00 0.00 0.00 55 1011.8
20260503171543 10 197 17.7 33.8 0.00 0.00 0.00 56 1011.7
20260503081549 0 0 0.0 0.0 0.00 0.00 0.00 7 1013.8
20260503071542 0 0 0.0 0.0 0.00 0.00 0.00 100 1013.5
20260503054539 0 0 0.0 0.0 0.00 0.00 0.00 17 1013.9
20260503053038 1 0 0.0 0.0 0.00 0.00 0.00 27 1013.9
20260503051535 1 0 0.0 1.6 0.00 0.00 0.00 32 1014.1
20260503050036 2 0 0.0 1.6 0.00 0.00 0.00 45 1014.1
20260503044542 2 0 0.0 1.6 0.00 0.00 0.00 53 1014.1
20260503043038 2 0 0.0 1.6 0.00 0.00 0.00 59 1014.2
20260503041541 3 0 0.0 3.2 0.00 0.00 0.00 63 1014.4
20260503040038 3 0 0.0 1.6 0.00 0.00 0.00 66 1014.4
20260503034536 3 0 0.0 3.2 0.00 0.00 0.00 66 1014.4
20260503033039 3 0 0.0 1.6 0.00 0.00 0.00 67 1014.4
20260503031548 3 0 0.0 0.0 0.00 0.00 0.00 68 1014.5
20260503030039 4 0 0.0 0.0 0.00 0.00 0.00 68 1014.5
20260503024538 4 0 0.0 1.6 0.00 0.00 0.00 69 1014.7
20260503023039 4 207 0.0 1.6 0.00 0.00 0.00 68 1014.8
20260503021539 4 0 0.0 4.8 0.00 0.00 0.00 68 1014.9
20260503020035 4 0 0.0 8.0 0.00 0.00 0.00 69 1015.0
20260503014538 5 0 1.6 9.7 0.00 0.00 0.00 67 1015.0